SCP
0 0 0 0 0 0 0 0 0 0 0 0 0 0 0 0 0 0 0 0 0 0 0 0 0 0 0 0 0 0 0 0 0 0 0 0 0 0 0 0 0 0 0
0 0 0 0 0 0 0 0 0 0 0 0 0 0 0 0 0 0 0 0 0 0 0 0 0 0 0 0 0 0 0 0 0 0 0 0 0 0 0 0 0 0 0
0 0 0 0 0 0 0 0 0 0 0 0 0 0 0 0 0 0 0 0 0 0 0 0 0 0 0 0 0 0 0 0 0 0 0 0 0 0 0 0 0 0 0
0 0 0 0 0 0 0 0 0 0 0 0 0 0 0 0 0 0 0 0 0 0 0 0 0 0 0 0 0 0 0 0 0 0 0 0 0 0 0 0 0 0 0
0 0 0 0 0 0 0 0 0 0 0 0 0 0 0 0 0 0 0 0 0 0 0 0 0 0 0 0 0 0 0 0 0 0 0 0 0 0 0 0 0 0 0
0 0 0 0 0 0 0 0 0 0 0 0 0 0 0 0 0 0 0 0 0 0 0 0 0 0 0 0 0 0 0 0 0 0 0 0 0 0 0 0 0 0 0
0 0 0 0 0 0 0 0 0 0 0 0 0 0 0 0 0 0 0 0 0 0 0 0 0 0 0 0 0 0 0 0 0 0 0 0 0 0 0 0 0 0 0
0 0 0 0 0 0 0 0 0 0 0 0 0 0 0 0 0 0 0 0 0 0 0 0 0 0 0 0 0 0 0 0 0 0 0 0 0 0 0 0 0 0 0
0 0 0 0 0 0 0 0 0 0 0 0 0 0 0 0 0 0 0 0 0 0 0 0 0 0 0 0 0 0 0 0 0 0 0 0 0 0 0 0 0 0 0
0 0 0 0 0 0 0 0 0 0 0 0 0 0 0 0 0 0 0 0 0 0 0 0 0 0 0 0 0 0 0 0 0 0 0 0 0 0 0 0 0 0 0
0 0 0 0 0 0 0 0 0 0 0 0 0 0 0 0 0 0 0 0 0 0 0 0 0 0 0 0 0 0 0 0 0 0 0 0 0 0 0 0 0 0 0
0 0 0 0 0 0 0 0 0 0 0 0 0 0 0 0 0 0 0 0 0 0 0 0 0 0 0 0 0 0 0 0 0 0 0 0 0 0 0 0 0 0 0
0 0 0 0 0 0 0 0 0 0 0 0 0 0 0 0 0 0 0 0 0 0 0 0 0 0 0 0 0 0 0 0 0 0 0 0 0 0 0 0 0 0 0
0 0 0 0 0 0 0 0 0 0 0 0 0 0 0 0 0 0 0 0 0 0 0 0 0 0 0 0 0 0 0 0 0 0 0 0 0 0 0 0 0 0 0
0 0 0 0 0 0 0 0 0 0 0 0 0 0 0 0 0 0 0 0 0 0 0 0 0 0 0 0 0 0 0 0 0 0 0 0 0 0 0 0 0 0 0
0 0 0 0 0 0 0 0 0 0 0 0 0 0 0 0 0 0 0 0 0 0 0 0 0 0 0 0 0 0 0 0 0 0 0 0 0 0 0 0 0 0 0
0 0 0 0 0 0 0 0 0 0 0 0 0 0 0 0 0 0 0 0 0 0 0 0 0 0 0 0 0 0 0 0 0 0 0 0 0 0 0 0 0 0 0
0 0 0 0 0 0 0 0 0 0 0 0 0 0 0 0 0 0 0 0 0 0 0 0 0 0 0 0 0 0 0 0 0 0 0 0 0 0 0 0 0 0 0
0 0 0 0 0 0 0 0 0 0 0 0 0 0 0 0 0 0 0 0 0 0 0 0 0 0 0 0 0 0 0 0 0 0 0 0 0 0 0 0 0 0 0
0 0 0 0 0 0 0 0 0 0 0 0 0 0 0 0 0 0 0 0 0 0 0 0 0 0 0 0 0 0 0 0 0 0 0 0 0 0 0 0 0 0 0
0 0 0 0 0 0 0 0 0 0 0 0 0 0 0 0 0 0 0 0 0 0 0 0 0 0 0 0 0 0 0 0 0 0 0 0 0 0 0 0 0 0 0
1 0 0 0 0 0 0 0 0 0 0 0 0 0 0 0 0 0 0 0 0 0 0 0 0 0 0 0 0 0 0 0 0 0 0 0 0 0 0 0 0 0 0
1 1 0 0 0 0 0 0 0 0 0 0 0 0 0 0 0 0 0 0 0 0 0 0 0 0 0 0 0 0 0 0 0 0 0 0 0 0 0 0 0 0 0
0 0 0 0 0 0 0 0 0 0 0 0 0 0 0 0 0 0 0 0 0 0 0 0 0 0 0 0 0 0 0 0 0 0 0 0 0 0 0 0 0 0 0
0 0 0 1 1 0 0 0 0 0 0 0 0 0 0 0 0 0 0 0 0 0 0 0 0 0 0 0 0 0 0 0 0 0 0 0 0 0 0 0 0 0 0
0 0 0 1 1 1 0 0 0 0 0 0 1 1 1 0 0 0 0 0 0 0 0 0 0 0 0 0 0 0 0 0 0 0 0 0 0 0 0 0 0 0 0
Wind_Speed
2 1 1 2 2 2 2 2 3 3 3 3 3 4 4 4 4 4 4 11 11 10 11 11 11 11 11 10 10 10 10 9 9 8 8 8 8 8 8 8 8 7 7
2 2 2 2 2 2 2 2 3 3 3 3 3 3 3 4 5 5 4 7 11 11 11 11 11 11 10 10 10 10 10 9 9 8 8 8 8 8 8 8 8 8 8
2 2 2 2 2 2 2 2 2 2 2 2 2 2 3 3 4 5 5 4 5 9 11 11 11 11 11 11 10 10 10 9 9 9 9 9 9 8 8 8 8 8 7
3 2 2 2 2 2 2 2 2 2 2 2 1 1 2 2 4 4 4 4 3 4 7 11 11 11 11 11 11 11 10 10 10 10 10 10 9 9 9 8 8 8 8
3 2 2 1 2 2 2 2 2 3 3 2 2 2 2 2 3 4 4 5 4 4 4 7 10 10 11 11 11 11 10 10 10 10 10 11 10 10 9 9 9 8 8
3 2 2 2 2 2 2 2 3 2 2 2 1 1 1 2 2 3 4 4 4 5 5 5 5 6 10 10 11 11 11 10 10 10 10 10 10 10 9 9 9 8 8
3 3 2 2 2 2 2 3 3 3 2 2 2 1 1 1 1 2 2 3 4 5 4 5 4 3 4 9 10 10 11 11 11 11 11 10 10 9 9 9 9 9 8
3 3 3 2 2 2 2 2 3 2 1 2 2 2 1 2 2 1 2 3 4 3 4 6 5 5 4 3 5 10 11 12 12 11 11 10 10 9 9 9 8 8 8
2 2 2 3 2 3 3 2 3 3 2 1 1 3 2 2 1 2 1 2 3 3 3 3 5 5 6 4 4 7 11 11 11 12 11 11 10 9 9 9 9 8 8
2 2 2 3 2 2 2 2 2 2 3 2 1 1 2 3 2 1 2 1 2 3 4 4 4 5 5 4 5 7 9 9 11 11 11 11 10 10 10 10 10 9 9
1 1 2 2 2 2 2 2 2 2 2 2 2 1 1 1 2 2 2 2 1 2 3 3 3 4 5 5 5 7 10 11 11 11 11 11 11 11 11 10 10 10 10
0 1 2 2 2 2 2 2 2 2 2 2 1 1 2 2 2 2 2 2 2 2 2 2 3 3 4 4 7 10 11 11 11 11 11 10 11 11 11 11 11 10 10
1 1 1 1 1 2 2 2 2 1 2 1 1 1 1 2 2 2 2 2 2 2 2 2 2 3 3 3 4 8 9 10 10 11 11 11 10 10 10 11 11 10 10
2 1 1 1 1 1 1 1 1 1 1 1 2 1 1 2 1 2 2 2 1 2 2 3 2 2 2 3 5 7 5 8 9 10 10 10 10 10 9 10 10 9 9
1 1 1 1 1 1 1 1 1 1 1 1 2 1 1 1 1 1 2 3 3 2 3 3 2 3 2 3 5 4 4 7 8 9 10 10 10 10 10 10 9 9 8
1 1 1 1 1 1 1 1 1 1 1 1 1 1 1 2 1 1 1 1 2 3 3 3 3 3 3 3 5 4 5 7 8 8 9 10 11 11 11 11 10 10 9
2 2 2 1 1 1 1 1 1 1 1 2 1 1 2 2 1 1 1 1 2 2 3 4 2 2 2 3 2 3 3 4 4 8 9 10 10 11 11 12 11 11 11
2 2 1 1 1 1 1 2 2 1 1 2 2 2 2 1 1 1 1 2 2 2 3 4 3 2 2 3 2 3 3 4 4 7 9 10 10 10 11 12 12 12 11
1 1 1 1 1 1 1 1 2 2 2 2 2 2 3 1 2 2 1 2 2 2 1 2 3 2 1 1 1 2 3 2 4 6 8 9 10 10 10 11 11 11 11
2 2 1 1 1 1 1 1 1 1 1 1 2 3 3 3 3 3 2 3 2 2 1 1 2 2 1 1 0 1 2 2 3 4 4 5 7 9 10 10 10 10 10
2 2 1 1 0 1 0 1 1 1 1 1 2 2 2 2 3 2 2 2 1 1 1 1 2 1 1 1 2 2 3 2 3 2 2 2 2 3 5 8 9 10 10
1 2 1 1 0 0 1 1 1 1 1 1 2 2 2 1 2 2 3 3 2 2 2 2 2 2 3 3 2 2 1 1 3 2 1 3 2 3 3 4 7 9 11
2 2 1 1 1 0 0 1 2 1 0 1 2 2 2 2 2 2 3 3 3 3 4 3 3 4 3 3 2 2 2 2 4 3 1 3 2 3 3 4 7 8 9
2 2 2 2 1 0 0 1 1 1 1 2 2 2 2 2 2 2 2 2 3 3 3 3 3 4 4 3 3 3 3 3 3 2 1 2 2 2 3 3 6 8 9
1 1 1 1 1 1 1 1 1 0 1 2 2 1 1 1 3 2 1 2 3 3 3 2 2 3 3 3 2 1 1 1 3 3 1 2 2 2 2 2 3 5 7
2 1 1 1 1 1 2 2 1 0 1 2 2 2 1 2 2 1 1 2 2 3 2 3 3 4 3 3 3 2 3 2 2 3 2 2 2 1 2 2 2 2 3
Wind_Direction
170 174 173 174 181 182 179 178 184 190 192 194 193 186 180 178 177 181 185 191 193 193 195 196 197 200 201 204 204 202 201 203 202 202 203 202 203 204 205 207 208 209 210
161 162 161 162 176 184 180 175 175 181 184 175 178 185 183 180 181 185 188 195 195 193 196 198 201 204 204 204 205 204 204 207 207 205 205 205 205 206 209 211 213 216 216
155 155 148 158 173 170 154 144 149 154 155 156 169 182 174 182 179 182 186 187 193 201 205 206 209 210 210 210 211 208 208 210 209 207 207 208 207 208 213 213 216 218 216
153 149 144 167 173 156 141 140 139 136 140 146 175 194 176 181 184 182 186 190 193 204 211 213 215 214 216 216 216 214 213 213 213 210 209 209 209 210 212 213 218 219 217
160 146 153 173 165 150 149 160 138 140 148 164 189 196 193 191 195 192 190 194 196 202 203 211 215 216 218 218 217 215 214 215 214 212 212 213 214 213 214 216 218 219 219
166 150 154 157 147 134 134 136 139 136 154 165 176 193 221 205 200 201 199 195 201 208 207 208 210 218 220 221 220 218 219 220 217 215 213 214 215 214 216 217 217 219 217
168 157 157 151 141 143 157 153 140 131 144 135 101 38 353 320 213 217 203 193 202 209 204 205 206 210 221 224 221 220 222 223 222 217 215 215 216 215 217 219 218 220 218
174 170 163 163 151 141 141 147 143 133 149 140 133 110 13 342 320 234 205 197 204 202 202 209 205 209 215 214 220 223 227 227 224 220 215 213 214 214 215 216 214 214 214
147 146 154 155 148 149 152 159 158 154 161 191 164 151 157 221 292 315 263 223 209 203 210 205 207 211 213 211 220 227 228 227 226 225 221 219 216 215 215 216 217 215 214
124 138 142 144 147 145 150 165 150 158 154 181 228 203 185 168 174 292 324 289 238 222 221 219 216 215 215 212 215 216 220 221 224 227 225 222 217 214 214 218 221 221 219
107 140 147 141 144 148 158 164 143 139 155 173 191 192 182 173 173 174 253 287 299 257 233 224 218 214 213 207 212 216 215 219 222 224 224 222 220 218 217 219 223 222 221
58 134 145 141 153 155 164 180 165 156 171 167 185 184 177 177 187 185 211 240 265 278 269 244 224 218 215 208 214 211 212 215 217 219 221 222 223 222 221 222 222 221 222
208 208 174 158 168 176 168 167 157 174 187 179 203 221 209 210 191 182 181 216 249 282 292 273 239 223 220 211 219 213 215 216 219 219 219 221 222 223 220 221 220 220 223
209 201 182 182 186 187 179 163 165 200 195 203 222 227 229 241 206 180 180 175 231 291 281 264 269 234 228 220 223 213 220 220 221 220 221 222 220 219 218 219 218 219 223
193 182 184 186 199 186 180 168 190 216 194 211 224 219 233 251 223 209 194 179 181 235 268 260 259 251 236 227 219 209 216 222 221 219 220 221 219 217 218 219 217 215 215
196 176 168 168 175 170 174 176 223 235 219 237 222 223 249 241 242 231 206 212 193 200 249 256 244 253 246 239 222 216 221 225 226 224 223 222 222 221 219 219 215 211 210
180 184 189 190 190 190 197 198 239 242 236 262 268 243 260 254 254 255 226 232 230 204 243 272 263 263 229 242 239 232 227 223 231 228 225 224 224 224 222 219 215 212 212
191 188 181 193 202 194 194 200 234 252 239 249 258 254 263 264 269 267 253 249 242 223 217 264 283 280 242 231 227 235 242 236 235 237 231 228 225 225 224 219 215 214 215
171 162 151 177 202 200 196 217 217 243 242 244 243 241 256 258 264 262 260 261 263 261 227 239 272 277 267 250 251 262 262 262 251 247 237 233 231 229 226 223 219 218 220
166 173 174 191 201 196 193 231 231 228 242 259 256 246 244 239 240 240 247 251 255 262 262 254 269 289 288 279 203 252 280 268 263 262 252 240 233 230 229 226 222 220 221
181 170 138 133 173 170 222 229 227 213 232 269 287 274 257 254 249 237 242 250 245 246 252 256 270 299 299 307 256 242 255 274 270 253 256 252 228 227 226 229 228 226 224
171 136 137 140 87 354 38 59 145 209 221 240 281 296 290 289 298 267 248 246 219 225 238 240 250 254 260 254 256 248 251 282 284 264 224 263 224 233 234 225 227 225 225
157 149 162 161 182 259 62 89 93 157 229 262 263 280 298 307 299 288 288 289 276 253 234 226 237 248 248 240 229 250 242 240 253 260 222 266 252 251 248 241 230 226 224
158 165 175 190 198 269 9 26 111 206 249 264 257 239 247 282 303 287 278 290 289 289 273 244 235 250 252 241 219 221 230 256 282 286 207 248 269 262 271 257 238 229 227
166 179 177 180 196 272 344 356 48 315 290 285 283 266 234 259 302 309 277 282 296 302 304 288 270 280 286 274 246 200 256 265 287 286 246 219 258 275 277 265 257 236 232
186 195 212 213 203 263 1 15 17 289 294 291 294 289 284 283 294 297 236 245 270 284 310 328 319 310 299 300 285 222 213 222 252 272 255 212 247 237 286 279 269 258 243